This is the latest recevied weather packets stored in our database for station/object Krupka. If no packets are shown the sender has not sent any weather packets the latest 1 day(s).
| Time | Temp. | Humidity | Pressure | Rain* | Wind** | Luminosity | Snow |
|---|---|---|---|---|---|---|---|
| 1777989903 | 12.78° C | 81% | - | - | 5.81 m/s, 23° | - | - |
| 1777989603 | 12.78° C | 76% | - | - | 4.92 m/s, 1° | - | - |
| 1777989303 | 12.78° C | 74% | - | - | 7.15 m/s, 3° | - | - |
| 1777989003 | 15° C | 68% | - | - | 5.81 m/s, 10° | - | - |
| 1777988703 | 16.11° C | 66% | - | - | 7.15 m/s, 4° | - | - |
| 1777988402 | 16.11° C | 63% | - | - | 5.81 m/s, 6° | - | - |
| 1777988103 | 16.11° C | 63% | - | - | 5.81 m/s, 7° | - | - |
| 1777987804 | 16.11° C | 62% | - | - | 5.81 m/s, 7° | - | - |
| 1777987503 | 17.22° C | 61% | - | - | 7.15 m/s, 23° | - | - |
| 1777987207 | 17.22° C | 60% | - | - | 4.92 m/s, 8° | - | - |
| 1777986904 | 17.22° C | 59% | - | - | 4.02 m/s, 9° | - | - |
| 1777986604 | 17.22° C | 59% | - | - | 4.02 m/s, 358° | - | - |
| 1777986303 | 17.22° C | 59% | - | - | 4.92 m/s, 13° | - | - |
| 1777986005 | 17.22° C | 58% | - | - | 4.02 m/s, 6° | - | - |
| 1777985703 | 17.78° C | 58% | - | - | 4.02 m/s, 7° | - | - |
| 1777985403 | 17.78° C | 58% | - | - | 3.13 m/s, 19° | - | - |
| 1777985103 | 17.78° C | 58% | - | - | 4.92 m/s, 12° | - | - |
| 1777984803 | 17.78° C | 58% | - | - | 3.13 m/s, 13° | - | - |
| 1777984504 | 17.78° C | 57% | - | - | 4.02 m/s, 6° | - | - |
| 1777984203 | 18.89° C | 57% | - | - | 5.81 m/s, 8° | - | - |
| 1777983902 | 18.89° C | 57% | - | - | 4.02 m/s, 12° | - | - |
| 1777983606 | 18.89° C | 57% | - | - | 3.13 m/s, 17° | - | - |
| 1777983303 | 18.89° C | 57% | - | - | 4.92 m/s, 22° | - | - |
| 1777983003 | 18.89° C | 57% | - | - | 3.13 m/s, 34° | - | - |
| 1777982703 | 18.89° C | 56% | - | - | 4.02 m/s, 11° | - | - |
* Rain since midnight (hover to see other rain measurements)
** Current wind speed in m/s (hover to see current wind gust speed)